[Date Prev][Date Next][Thread Prev][Thread Next] - [Date Index][Thread Index][Author Index]
2 Line ISS Keps 6-11
- Subject: [sarex] 2 Line ISS Keps 6-11
- From: "Dave Larsen PhD" <doc@xxxxxxxxxxx>
- Date: Fri, 10 Jun 2005 20:32:53 -0700
ISS
1 25544U 98067A 05162.12930556 .00015314 00000-0 11560-3 0 6644
2 25544 051.6465 291.9536 0004316 233.2642 125.5519 15.72687988374722
----
Via the sarex mailing list at AMSAT.ORG courtesy of AMSAT-NA.
To unsubscribe, send "unsubscribe sarex" to Majordomo@amsat.org
AMSAT Home